Flag for United Kingdom

Past Weather in Bristol, England, United Kingdom — Yesterday and Last 2 Weeks

Currently: 36 °F. Chilly. (Weather station: Bristol / Lulsgate, United Kingdom). See more current weather

Past Weather in Bristol — Graph

°F

Bristol Temperature Yesterday

Maximum temperature yesterday: 43 °F (at 1:20 pm)
Minimum temperature yesterday: 36 °F (at 9:50 pm)
Average temperature yesterday: 39 °F

High & Low Weather Summary for the Past Weeks

 TemperatureHumidityPressure
High52 °F (Jan 20, 12:50 am)100% (Jan 7, 5:20 am)30.45 "Hg (Jan 7, 5:20 am)
Low27 °F (Jan 7, 7:20 am)76% (Jan 21, 1:50 pm)28.71 "Hg (Jan 20, 8:20 pm)
Average40 °F96%29.94 "Hg
* Reported Jan 7 5:20 am — Jan 22 5:50 am, Bristol. Weather by CustomWeather, © 2021

Note: Actual official high and low records may vary slightly from our data, if they occured in-between our weather recording intervals... More about our weather records

Bristol Weather History for the Previous 24 Hours

Scroll right to see more
 ConditionsComfort  
Time TempWeatherWind HumidityBarometerVisibility
5:50 am
Fri, Jan 22
36 °FChilly.9 mph100%29.24 "HgN/A
5:20 am36 °FChilly.8 mph100%29.24 "HgN/A
4:50 am36 °FChilly.8 mph100%29.24 "HgN/A
4:20 am36 °FChilly.9 mph100%29.24 "HgN/A
3:50 am36 °FChilly.8 mph93%29.21 "HgN/A
3:20 am36 °FChilly.8 mph100%29.21 "HgN/A
2:50 am36 °FChilly.8 mph93%29.21 "HgN/A
2:20 am36 °FChilly.12 mph93%29.21 "HgN/A
1:50 am36 °FChilly.12 mph100%29.21 "HgN/A
1:20 am36 °FChilly.12 mph100%29.18 "HgN/A
12:50 am36 °FChilly.10 mph100%29.18 "HgN/A
12:20 am36 °FChilly.10 mph100%29.18 "HgN/A
11:50 pm
Thu, Jan 21
37 °FChilly.10 mph93%29.18 "HgN/A
11:20 pm36 °FChilly.12 mph100%29.18 "HgN/A
10:50 pm36 °FPassing clouds.12 mph93%29.15 "HgN/A
10:20 pm36 °FPassing clouds.12 mph93%29.15 "HgN/A
9:50 pm36 °FChilly.13 mph93%29.15 "HgN/A
9:20 pm37 °FPassing clouds.12 mph87%29.12 "HgN/A
8:50 pm37 °FChilly.12 mph87%29.12 "HgN/A
8:20 pm37 °FChilly.10 mph87%29.12 "HgN/A
7:50 pm37 °FChilly.10 mph87%29.09 "HgN/A
7:20 pm37 °FChilly.10 mph93%29.09 "HgN/A
6:50 pm37 °FChilly.9 mph93%29.09 "HgN/A
6:20 pm39 °FChilly.10 mph93%29.09 "HgN/A
5:50 pm39 °FChilly.12 mph93%29.06 "HgN/A
5:20 pm39 °FChilly.9 mph93%29.06 "HgN/A
4:50 pm39 °FChilly.9 mph87%29.06 "HgN/A
4:20 pm39 °FChilly.8 mph93%29.06 "HgN/A
3:50 pm41 °FQuite cool.13 mph87%29.06 "HgN/A
3:20 pm41 °FScattered clouds.6 mph87%29.06 "HgN/A
2:50 pm41 °FLight rain. Broken clouds.7 mph87%29.06 "HgN/A
2:20 pm43 °FPassing clouds.9 mph81%29.09 "HgN/A
1:50 pm43 °FQuite cool.12 mph76%29.09 "HgN/A
1:20 pm43 °FBroken clouds.12 mph81%29.09 "HgN/A
12:50 pm41 °FPartly sunny.10 mph87%29.09 "HgN/A
12:20 pm41 °FLight rain. Broken clouds.15 mph87%29.12 "HgN/A
11:50 am41 °FBroken clouds.12 mph93%29.12 "HgN/A
11:20 am39 °FMostly cloudy.8 mph93%29.12 "HgN/A
10:50 am41 °FHeavy rain. Mostly cloudy.12 mph87%29.12 "Hg2 mi
10:20 am41 °FLight rain. Partly sunny.17 mph87%29.12 "HgN/A
9:50 am39 °FMostly cloudy.14 mph93%29.12 "HgN/A
9:20 am37 °FLight rain. Partly sunny.15 mph93%29.12 "HgN/A
8:50 am39 °FLight rain. Broken clouds.15 mph93%29.12 "HgN/A
8:20 am39 °FLight rain. Partly sunny.24 mph87%29.09 "HgN/A
7:50 am39 °FPassing clouds.15 mph87%29.09 "HgN/A
7:20 am39 °FPartly cloudy.16 mph87%29.06 "HgN/A
Weather by CustomWeather, © 2021

See weather overview